sat.trackr.live / text

‹ back to catalog

STARLINK-35571

NORAD 66089 · 2025-236D

PAYLOAD ACTIVE UNKNOWN

§ Identity

Operator
Country
US
Launch date
2025-10-19
Launch site
AFWTR
Launch vehicle
Mass (kg)
RCS (m²)

Purposes: comms

External: N2YO · Heavens-Above · Gunter

§ Orbital elements

Epoch: 2026-05-25T03:46:09.787008Z

Period
94.10 min
Inclination
53.1611°
Eccentricity
0.0001440
Mean motion
15.30206268 rev/d
Perigee alt
474.2 km
Apogee alt
476.2 km
Semi-major
6,853.3 km
B*
2.3518e-4
RAAN
108.5770°
Arg perigee
92.5358°
Mean anomaly
267.5807°
Rev number
3,465

§ Raw data

STARLINK-355711 66089U 25236D   26145.15705772  .00006614  00000+0  23518-3 0  99972 66089  53.1611 108.5770 0001440  92.5358 267.5807 15.30206268 34653

JSON: /api/v1/satellites/66089 · /tle

For live sub-satellite position, see the globe view (requires WebGL).

§ Visibility from observer

Set your observer location to see the next 7 days of passes ≥ 10°. The values pass through the URL so the page stays shareable.

No JS? Fill the form by hand. The geolocation button needs JavaScript.